Regional Weather Roundup
Issued by NWS Wakefield, VA

Home | Current Version | Previous Version | Text Only | Print | Product List | Glossary On
Versions: 1 2 3 4 5 6 7 8 9 10 11 12 13 14 15 16 17 18 19 20 21 22 23 24 25 26 27 28 29 30 31 32 33 34 35 36 37 38 39 40 41 42 43 44 45 46 47 48 49 50
000
ASUS41 KAKQ 150315
RWRAKQ

REGIONAL WEATHER ROUNDUP
NATIONAL WEATHER SERVICE WAKEFIELD VA
1000 PM EST THU DEC 14 2017

Note: "fair" indicates few or no clouds below 12,000 feet with no
significant weather and/or obstructions to visibility. * = Denotes
station may not report precipitation (e.g., rain,snow,etc.),
thunder or fog.

VAZ042-051-052>054-056-150400-
NORTHERN VIRGINIA

CITY           SKY/WX    TMP DP  RH WIND       PRES   REMARKS
WASH NATIONAL  CLOUDY    33  14  45 N12       30.11R WCI  24
DULLES         CLOUDY    30  13  49 N8        30.09R
FORT BELVOIR   CLOUDY    33  13  44 N3        30.10S
QUANTICO       CLOUDY    34  18  52 N12       30.11S
FREDERICKSBRG* MOCLDY    33  20  59 N3        30.09R
STAFFORD*      CLOUDY    32  19  57 NE6       30.13R
WARRENTON      CLOUDY    32  15  49 NE6       30.08R
CULPEPER*      CLOUDY    32  16  52 NE5       30.09S
MANASSAS*      CLOUDY    31  16  54 N12       30.10R WCI  22
LEESBURG*      CLOUDY    32  16  51 NE5       30.10S
WINCHESTER     CLOUDY    28  14  54 CALM      30.07R
FRONT ROYAL*   CLOUDY    28  18  64 MISG      30.06S
LURAY*         PTCLDY    30  21  69 N8        30.04S
$$

VAZ048-049-060>072-079>083-150400-
CENTRAL AND SOUTH CENTRAL VIRGINIA

CITY           SKY/WX    TMP DP  RH WIND       PRES   REMARKS
RICHMOND       PTCLDY    36  19  50 N3        30.08R
CHESTERFIELD*  NOT AVBL
PETERSBURG*    CLOUDY    30  21  69 NE3       30.08S
HANOVER        MOCLDY    31  20  63 CALM      30.10R
TAPPAHANNOCK*  MOCLDY    34  19  54 NE3       30.10R
QUINTON*       FAIR      33  20  59 CALM      30.08R
CHARLOTTSVILLE PTCLDY    32  19  58 NE5       30.06R
GORDONSVILLE*  PTCLDY    28  21  75 CALM      30.07R
ORANGE*        MOCLDY    30  19  64 CALM      30.07R
LOUISA*        CLOUDY    31  18  58 E3        30.11S
BUMPASS*       FAIR      32  17  53 CALM      30.07S
FARMVILLE*     PTCLDY    35  25  66 NE6       30.05R
CREWE*         FAIR      35  22  58 E3        30.05S
FORT PICKETT*  NOT AVBL
CHASE CITY*    FAIR      39  24  54 CALM      30.04R
CLARKSVILLE*   FAIR      41  25  52 N3        30.03R
SOUTH HILL*    PTCLDY    38  26  62 NE3       30.10R
LAWRENCEVILLE* FAIR      36  22  56 CALM      30.05S
EMPORIA*       CLEAR     36  25  64 CALM      30.08R
$$

VAZ088>098-150400-
SOUTHEAST VIRGINIA

CITY           SKY/WX    TMP DP  RH WIND       PRES   REMARKS
NORFOLK        CLOUDY    39  23  52 NE13      30.07R
VIRGINIA BEACH CLOUDY    39  22  50 N8        30.07R
NORFOLK NAVAL  CLOUDY    40  22  48 NE10      30.10R
WEST POINT*    PTCLDY   N/A N/A N/A CALM      30.11R
SALUDA*        FAIR      35  22  57 N5        30.09R
NEWPORT NEWS   CLOUDY    38  26  62 NE8       30.08R
LANGLEY AFB    CLOUDY    38  26  63 E12       30.08R
FORT EUSTIS    MOCLDY    37  23  55 CALM      30.06R
WILLIAMSBURG*  PTCLDY    36  25  64 CALM      30.09R
HR EXEC AP*    FAIR      38  25  59 NE7       30.09R
FRANKLIN*      CLEAR     35  27  73 CALM      30.08R
US460-WAKEFLD  PTCLDY    34  24  67 CALM      30.08R
$$

VAZ020-022-025-037-045-150400-
WEST CENTRAL AND SOUTHWEST VIRGINIA

CITY           SKY/WX    TMP DP  RH WIND       PRES   REMARKS
STAUNTON*      MOCLDY    24  18  78 CALM      30.05R
WAYNESBORO*    PTCLDY    29  19  64 CALM      30.02R
HOT SPRINGS VA CLOUDY    23  16  76 W13       29.89F WCI  11
LYNCHBURG      CLOUDY    33  19  56 N7        30.02R
DANVILLE       PTCLDY    36  23  59 NE7       30.03S
SOUTH BOSTON*  FAIR      39  20  47 NE3       30.04R
MARTINSVILLE   CLEAR     33  21  60 CALM      30.04R
ROANOKE        CLEAR     33  20  58 NE3       30.03R
BLACKSBURG     CLEAR     25  21  84 CALM      30.00R
DUBLIN*        CLEAR     28  22  80 CALM      29.99R
MARION*        CLEAR     27  22  82 CALM      29.99R
HILLSVILLE*    CLEAR     29  22  75 CALM      29.94R
RICHLANDS*     MOCLDY    29  22  75 CALM      29.96R
WISE*          CLOUDY    30  25  80 CALM      29.96F
ABINGDON*      CLEAR     29  25  84 CALM      29.98R
$$

MDZ021>025-VAZ099-100-150400-
SOUTHERN MARYLAND AND THE DELMARVA PENINSULA

CITY           SKY/WX    TMP DP  RH WIND       PRES   REMARKS
PATUXENT RIVER PTCLDY    34  19  54 N13       30.08S WCI  25
BAY BRIDGE APT PTCLDY    32  14  47 N9        30.09F
LEONARDTOWN    CLOUDY    32  18  55 N3        30.10S
DOVER          PTCLDY    27  15  60 NW10      30.09S WCI  17
GEORGETOWN     CLOUDY    30  15  53 NE6       30.09R
EASTON         NOT AVBL
CAMBRIDGE      PTCLDY    32  16  51 N7        30.09R
SALISBURY      MOCLDY    30  19  63 N5        30.08R
OCEAN CITY     PTCLDY    32  20  61 N9        30.08R
WALLOPS ISLAND PTCLDY    32  19  58 CALM      30.09R
ACCOMACK*      PTCLDY    32  21  64 E3        30.09R
$$

NCZ012>017-030>032-150400-
NORTH CENTRAL AND EASTERN NORTH CAROLINA

CITY           SKY/WX    TMP DP  RH WIND       PRES   REMARKS
ROANOKE RAPIDS FAIR      39  32  75 CALM      30.05R
RALEIGH        MOCLDY    41  26  55 NE7       30.01S
ELIZABETH CITY PTCLDY    42  35  76 N12       30.06R
AHOSKIE*       CLEAR     38  29  68 NE5       30.06R
EDENTON*       PTCLDY    40  32  73 NE5       30.05R
CURRITUCK*     PTCLDY    42  33  69 N9        30.06R
KILL DEVIL HLS PTCLDY    46  33  61 NE5       30.02S
MANTEO         PTCLDY    44  35  70 NE8       30.04R
CAPE HATTERAS  CLEAR     43  40  89 N5        30.01R
TARBORO*       NOT AVBL
GOLDSBORO      CLEAR     35  28  77 CALM      29.99R
WASHINGTON     CLEAR     39  32  77 NE6       30.03R
GREENVILLE     CLEAR     39  32  75 E5        30.04R
NEW BERN       CLEAR     39  35  86 E8        30.03R
WILMINGTON     CLOUDY    39  37  92 CALM      29.99F
$$

VAZ048-150400-
ELSEWHERE

CITY           SKY/WX    TMP DP  RH WIND       PRES   REMARKS
HARRISBURG PA  CLOUDY    25   8  48 N7        30.10R
BALTIMORE      CLOUDY    30  11  45 N6        30.10R
ANNAPOLIS      PTCLDY    34  20  56 NW10      30.10R
ANDREWS AFB    CLOUDY    29  15  55 N6        30.07S
PHILADELPHIA   CLOUDY    29   9  43 NW6       30.11R
HENDERSON NC   PTCLDY    37  23  55 N5        30.02R
GREENSBORO     PTCLDY    37  25  61 NE10      29.98S
ROCKY MOUNT    CLEAR     41  31  67 NE8       30.03R
$$

VAZ100-150400-
MARINE

STATION/POSITION TIME  TEMP    WIND        PRES    WAVE   SWELL
                       AIR SEA DIR/SP/G            HT/PER HT/PER
                 (UTC) (F)     (DEG/KT/KT) (MB)    (FT/S) (FT/S)
BRANDYWINE LGT   0242   33     360/ 20/ 22 1019.2R
CAPE MAY NJ      0248   32 40  360/  7/ 11 1018.7R
LEWES DE         0248   35 43   10/ 13/ 15 1018.7R
15NM E FENWICK I 0250   37 52  350/ 17/ 23 1018.5R   3/ 4   2/ 8
OCEAN-CITY-INLET 0248   35 46   10/ 10/ 12 1018.9R
WACHAPREAGUE VA  0248   34 39  360/  3/  6 1018.7R
THOMAS POINT MD  0300   33 45  350/ 15/ 17   N/A
GOOSES REEF MD   0300   36 46   40/ 16/ 19 1019.2    2/ 3
COVE POINT MD    0248   36      20/ 16/ 22 1019.2S
SOLOMONS ISLAND  0248   35 46  340/  5/  5 1018.6R
BISHOPS HEAD MD  0248   34 37   10/  6/  9 1019.0R
PINEY POINT MD   0236           20/  6/  7   N/A
POTOMAC MD       0300   37 46  360/ 10/ 14 1018.2    1
CAMBRIDGE MD     0242   34 41              1019.4R
LEWISETTA VA     0248   36 42   10/  6/  8 1018.9R
RAPPAHANNOCK LGT 0236           20/ 17/ 19 1019.1R
STINGRAY PT      0250   39      50/ 14/ 17 1018.9R
YORK RVR RNG VA  0248   40      40/ 16/ 18 1019.1R
YORKTOWN VA      0248   39 46   40/  5/  6 1018.3R
JAMESTOWN VA     0300      45   50/  4/  6   N/A     0
DOMINION TERM VA 0248   40      30/  2/  5 1018.7R
KIPTOPEKE VA     0248      45   60/  5/ 10   N/A
CAPE HENRY VA    0248   40      30/ 16/ 19   N/A
WILLOUBY STN VA  0236           60/ 13/ 14 1018.4R
S CRANEY ISL VA  0248   40      70/ 10/ 13 1018.2R
CAPE HENRY BUOY  0300      53                N/A     4/ 5
1ST LANDING BUOY 0300   39 47   70/ 16/ 19 1019.1    2/ 3
CAPE CHARLES BUO 0251      51                N/A     3/ 4
64NM E OF VA BCH 0250   47 60   40/ 12/ 16 1018.2R   5/ 6   3/ 6
DUCK PIER NC     0248   47 53   30/ 16/ 18 1016.9R
44100 DUCK FRF   0245      54                N/A     4/ 6
44056 DUCK FRF   0300      55                N/A     4/ 6
OREGON INLET NC  0236   48 42   30/  9/ 11 1016.7R
HATTERAS NC      0248   48 52   30/  5/  6 1015.8R
DIAMOND SHLS NC  0250   57 74   20/  6/ 14 1016.0R   5/ 8   5/ 8
CAPE LOOKOUT NC  0300           20/  8/  8 1016.0R
$$



USA.gov is the U.S. government's official web portal to all federal, state and local government web resources and services.